TimeCDT,TemperatureF,Dew PointF,Humidity,Sea Level PressureIn,VisibilityMPH,Wind Direction,Wind SpeedMPH,Gust SpeedMPH,PrecipitationIn,Events,Conditions,WindDirDegrees,DateUTC
12:24 AM,60.8,59.0,94,29.92,1.2,Calm,Calm,-,N/A,,Overcast,0,2013-07-22 05:24:00
12:30 AM,60.8,59.0,94,29.92,0.8,SE,3.5,-,N/A,,Overcast,130,2013-07-22 05:30:00
12:54 AM,61.0,61.0,100,29.91,0.2,ESE,4.6,-,N/A,Fog,Fog,120,2013-07-22 05:54:00
1:54 AM,60.1,60.1,100,29.89,0.5,ESE,3.5,-,N/A,Fog,Fog,110,2013-07-22 06:54:00
2:54 AM,60.1,59.0,96,29.88,0.5,Calm,Calm,-,N/A,Fog,Fog,0,2013-07-22 07:54:00
3:54 AM,60.1,59.0,96,29.88,0.5,Calm,Calm,-,N/A,Fog,Fog,0,2013-07-22 08:54:00
4:51 AM,59.0,59.0,100,29.85,1.2,ESE,5.8,-,N/A,,Overcast,120,2013-07-22 09:51:00
4:54 AM,59.0,59.0,100,29.85,1.5,ESE,4.6,-,N/A,,Overcast,120,2013-07-22 09:54:00
5:17 AM,59.0,59.0,100,29.86,0.8,ESE,4.6,-,N/A,,Overcast,120,2013-07-22 10:17:00
5:36 AM,59.0,59.0,100,29.86,1.0,ESE,4.6,-,N/A,,Overcast,120,2013-07-22 10:36:00
5:43 AM,59.0,59.0,100,29.86,1.2,ESE,4.6,-,N/A,,Overcast,120,2013-07-22 10:43:00
5:54 AM,60.1,59.0,96,29.86,1.5,ESE,3.5,-,N/A,,Overcast,120,2013-07-22 10:54:00
6:01 AM,60.8,59.0,94,29.86,3.0,ESE,4.6,-,N/A,,Overcast,120,2013-07-22 11:01:00
6:54 AM,61.0,60.1,97,29.86,7.0,SE,3.5,-,N/A,,Mostly Cloudy,130,2013-07-22 11:54:00
7:54 AM,62.1,61.0,96,29.85,5.0,SSE,3.5,-,N/A,,Overcast,160,2013-07-22 12:54:00
8:24 AM,64.4,62.6,94,29.85,7.0,South,4.6,-,N/A,,Overcast,180,2013-07-22 13:24:00
8:54 AM,64.9,63.0,93,29.84,10.0,SSW,6.9,-,N/A,,Overcast,200,2013-07-22 13:54:00
9:54 AM,68.0,64.0,87,29.83,10.0,South,5.8,-,N/A,,Overcast,180,2013-07-22 14:54:00
10:46 AM,71.6,64.4,78,29.82,10.0,South,5.8,-,N/A,,Scattered Clouds,170,2013-07-22 15:46:00
10:54 AM,73.9,64.9,73,29.81,10.0,SSW,9.2,-,N/A,,Partly Cloudy,210,2013-07-22 15:54:00
11:54 AM,79.0,64.0,60,29.79,10.0,South,11.5,20.7,N/A,,Clear,180,2013-07-22 16:54:00
12:54 PM,81.0,64.9,58,29.76,10.0,SSW,15.0,20.7,N/A,,Clear,210,2013-07-22 17:54:00
1:54 PM,81.0,66.0,60,29.73,10.0,South,13.8,20.7,N/A,,Clear,180,2013-07-22 18:54:00
2:54 PM,84.9,66.9,55,29.72,10.0,SSW,12.7,19.6,N/A,,Partly Cloudy,210,2013-07-22 19:54:00
3:54 PM,84.0,68.0,58,29.71,10.0,SSW,15.0,21.9,N/A,,Scattered Clouds,200,2013-07-22 20:54:00
4:54 PM,82.9,69.1,63,29.69,10.0,SSW,11.5,-,N/A,,Partly Cloudy,200,2013-07-22 21:54:00
5:54 PM,81.0,68.0,65,29.68,10.0,SW,10.4,-,N/A,,Partly Cloudy,220,2013-07-22 22:54:00
6:54 PM,80.1,69.1,69,29.65,10.0,SSW,9.2,-,N/A,,Clear,210,2013-07-22 23:54:00
7:54 PM,80.1,69.1,69,29.66,10.0,WNW,8.1,-,N/A,,Clear,290,2013-07-23 00:54:00
8:54 PM,75.9,62.1,62,29.68,10.0,WNW,5.8,-,N/A,,Partly Cloudy,300,2013-07-23 01:54:00
9:54 PM,75.0,64.0,69,29.70,10.0,WNW,6.9,-,N/A,,Partly Cloudy,300,2013-07-23 02:54:00
10:54 PM,73.0,64.0,73,29.71,10.0,West,5.8,-,N/A,,Partly Cloudy,270,2013-07-23 03:54:00
11:54 PM,73.0,64.9,76,29.75,10.0,NNW,6.9,-,N/A,,Overcast,330,2013-07-23 04:54:00